Weather History for KUNV - October, 2013

Change the Weather History Date:

Tuesday, October 15, 2013

  Actual Average Record
Temperature  
Mean Temperature 60 °F -  
Max Temperature 69 °F 61 °F 79 °F (1930)
Min Temperature 52 °F 41 °F 27 °F (1937)
Degree Days  
Heating Degree Days 4    
Growing Degree Days 10 (Base 50)    
Moisture  
Dew Point 52 °F    
Average Humidity 78    
Maximum Humidity 100    
Minimum Humidity 52    
Precipitation  
Precipitation 0.00 in - - ()
Sea Level Pressure  
Sea Level Pressure 30.18 in    
Wind  
Wind Speed 1 mph (South)    
Max Wind Speed 9 mph    
Max Gust Speed -    
Visibility 9 miles    
Events      
Averages and records for this station are not official NWS values.
T = Trace of Precipitation, MM = Missing Value Source: NWS Daily Summary

Daily Weather History Graph

Daily Weather History Graph

Search for Another Location

Airport or City:

Trip Planner

Search our weather history database for the weather conditions in past years. The results will help you decide how hot, cold, wet, or windy it might be!

Date:

Astronomy

Oct. 15, 2013 Rise Set
Actual Time 7:22 AM EDT 6:30 PM EDT
Civil Twilight 6:55 AM EDT 6:58 PM EDT
Nautical Twilight 6:23 AM EDT 7:29 PM EDT
Astronomical Twilight 5:51 AM EDT 8:01 PM EDT
Moon 4:35 PM EDT (10/15) 3:42 AM EDT (10/15)
Length of Visible Light 12h 02m
Length of Day
11h 07m
Waxing Gibbous, 87% of the Moon is Illuminated
Oct 15
Waxing Gibbous
Oct 18
Full
Oct 26
Last Quarter
Nov 3
New
Nov 10
First Quarter

Hourly Weather History & Observations

Time (EDT) Temp. Dew Point Humidity Pressure Visibility Wind Dir Wind Speed Gust Speed Precip Events Conditions
12:15 AM 57.2 °F 54.5 °F 91% 30.28 in 10.0 mi Calm Calm - N/A   Overcast
12:35 AM 56.8 °F 54.1 °F 91% 30.27 in 10.0 mi Calm Calm - N/A   Overcast
12:55 AM 56.7 °F 53.8 °F 90% 30.26 in 10.0 mi Calm Calm - N/A   Overcast
1:15 AM 57.2 °F 54.0 °F 89% 30.26 in 10.0 mi Calm Calm - N/A   Overcast
1:35 AM 57.2 °F 53.8 °F 88% 30.26 in 10.0 mi Calm Calm - N/A   Overcast
1:55 AM 57.2 °F 54.0 °F 89% 30.25 in 10.0 mi Calm Calm - N/A   Overcast
2:15 AM 57.2 °F 53.6 °F 88% 30.25 in 10.0 mi Calm Calm - N/A   Overcast
2:35 AM 55.8 °F 53.6 °F 92% 30.24 in 10.0 mi Calm Calm - N/A   Overcast
2:55 AM 55.6 °F 53.6 °F 93% 30.24 in 10.0 mi Calm Calm - N/A   Mostly Cloudy
3:15 AM 54.0 °F 52.2 °F 94% 30.23 in 10.0 mi Calm Calm - N/A   Scattered Clouds
3:35 AM 54.0 °F 52.7 °F 95% 30.23 in 10.0 mi North 3.5 mph - N/A   Clear
3:55 AM 54.0 °F 52.5 °F 95% 30.23 in 10.0 mi North 3.5 mph - N/A   Clear
4:15 AM 52.7 °F 51.6 °F 96% 30.22 in 5.0 mi ENE 3.5 mph - N/A   Scattered Clouds
4:35 AM 53.2 °F 52.7 °F 98% 30.22 in 5.0 mi Calm Calm - N/A   Overcast
4:55 AM 54.1 °F 53.4 °F 97% 30.22 in 7.0 mi Calm Calm - N/A   Overcast
5:15 AM 54.7 °F 53.6 °F 96% 30.22 in 10.0 mi Calm Calm - N/A   Overcast
5:35 AM 54.3 °F 53.1 °F 95% 30.22 in 7.0 mi Calm Calm - N/A   Overcast
5:55 AM 53.6 °F 53.6 °F 100% 30.22 in 8.0 mi Calm Calm - N/A   Overcast
6:53 AM 53.6 °F 53.6 °F 100% 30.22 in 5.0 mi Calm Calm - N/A   Mostly Cloudy
7:53 AM 55.4 °F 53.6 °F 94% 30.22 in 5.0 mi Calm Calm - N/A   Mostly Cloudy
8:53 AM 55.4 °F 53.6 °F 94% 30.24 in 4.0 mi Calm Calm - N/A   Mostly Cloudy
9:53 AM 59.0 °F 55.4 °F 88% 30.24 in 5.0 mi Calm Calm - N/A   Mostly Cloudy
10:53 AM 62.6 °F 55.4 °F 77% 30.22 in 10.0 mi Calm Calm - N/A   Mostly Cloudy
11:53 AM 64.4 °F 55.4 °F 73% 30.20 in 10.0 mi SSW 5.8 mph - N/A   Mostly Cloudy
12:37 PM 68.0 °F 51.8 °F 56% 30.19 in 10.0 mi SSW 4.6 mph - N/A   Scattered Clouds
12:53 PM 68.0 °F 51.8 °F 56% 30.18 in 10.0 mi SSW 8.1 mph - N/A   Scattered Clouds
1:53 PM 68.0 °F 50.0 °F 52% 30.15 in 10.0 mi South 9.2 mph - N/A   Mostly Cloudy
2:53 PM 69.8 °F 51.8 °F 53% 30.13 in 10.0 mi SSW 4.6 mph - N/A   Mostly Cloudy
3:53 PM 69.8 °F 53.6 °F 56% 30.12 in 10.0 mi SSW 6.9 mph - N/A   Scattered Clouds
4:53 PM 68.0 °F 51.8 °F 56% 30.10 in 10.0 mi South 6.9 mph - N/A   Partly Cloudy
5:53 PM 66.2 °F 51.8 °F 60% 30.10 in 10.0 mi SE 5.8 mph - N/A   Clear
6:53 PM 64.4 °F 50.0 °F 59% 30.11 in 10.0 mi Calm Calm - N/A   Clear
7:53 PM 62.6 °F 50.0 °F 63% 30.10 in 10.0 mi SE 3.5 mph - N/A   Clear
8:53 PM 62.6 °F 48.2 °F 59% 30.11 in 10.0 mi Calm Calm - N/A   Clear
9:35 PM 61.7 °F 48.2 °F 61% 30.10 in 10.0 mi Calm Calm - N/A   Clear
9:55 PM 61.3 °F 47.8 °F 61% 30.09 in 10.0 mi Calm Calm - N/A   Clear
10:15 PM 61.2 °F 47.8 °F 62% 30.09 in 10.0 mi Calm Calm - N/A   Clear
10:35 PM 60.8 °F 47.8 °F 62% 30.09 in 10.0 mi SSE 3.5 mph - N/A   Clear
10:55 PM 61.2 °F 47.3 °F 60% 30.09 in 10.0 mi SSE 3.5 mph - N/A   Clear
11:15 PM 60.4 °F 47.5 °F 62% 30.08 in 10.0 mi Calm Calm - N/A   Clear
11:35 PM 60.4 °F 47.5 °F 62% 30.08 in 10.0 mi Calm Calm - N/A   Clear
11:55 PM 59.7 °F 48.2 °F 66% 30.08 in 10.0 mi SSW 3.5 mph - N/A   Clear